Location: ???????????
(44.5553°N, 135.5692°E)
Time: 00:30:52
(UTC+00:00)

Daily predictions for brighter satellites

Satellite Brightness Start Highest point End
(mag) Time Altitude Azimuth Time Altitude Azimuth Time Altitude Azimuth
Cosmos 921 Rocket 4.5 08:01:24 10° SE 08:04:17 18° E 08:07:12 10° NE
Cosmos 2227 4.3 07:58:59 10° SSW 08:04:44 81° ESE 08:10:31 10° NNE
Cosmos 1025 Rocket 3.7 08:01:53 10° N 08:05:50 33° ENE 08:09:44 10° SE
SAR-Lupe-4 3.7 08:03:01 10° SSE 08:06:30 52° ENE 08:10:01 10° N
Cosmos 2227 Rocket 4.5 08:04:00 10° W 08:07:45 18° NW 08:11:30 10° N
Cosmos 1725 Rocket 4.5 08:02:07 10° SSE 08:07:47 38° E 08:13:30 10° NNE
SJ-12 4.1 08:04:13 10° SE 08:07:48 40° ENE 08:11:24 10° N
YAOGAN 1 4.2 08:05:58 10° E 08:08:11 14° ENE 08:10:25 10° NNE
ARIANE 6 FM1 Upper Stage 2.6 08:08:03 10° SSW 08:12:02 65° SE 08:15:59 10° NE
SL-16 R/B 3.1 08:06:20 10° N 08:12:32 64° WNW 08:18:43 10° SSW
IGS 5A 3.6 08:10:32 10° S 08:14:30 75° WSW 08:18:30 10° NNW
Cosmos 1802 Rocket 4.3 08:09:38 10° SSE 08:15:45 49° E 08:21:54 10° NNE
Cosmos 1844 3.8 08:10:37 10° SSW 08:16:23 77° ESE 08:22:11 10° NNE
SL-4 R/B 2.9 08:16:13 10° NW 08:19:12 27° N 08:22:07 11° ENE
Cosmos 1378 Rocket 3.5 08:15:17 10° N 08:19:36 89° WNW 08:23:57 10° S
Cosmos 614 Rocket 4.0 08:14:25 10° SSW 08:19:37 90° SSE 08:24:51 10° NNE
Meteor 1-11 4.2 08:16:22 10° N 08:22:09 75° ENE 08:27:48 10° SSE
MOS 1 Rocket 3.7 08:20:13 10° SE 08:24:02 34° ENE 08:27:54 10° N
NOSS 3-4 (A) 4.0 08:17:35 10° NNW 08:24:08 52° NE 08:31:48 10° ESE
NOSS 3-4 (C) 4.0 08:17:40 10° NNW 08:24:12 51° NE 08:31:51 10° ESE
Cosmos 2173 Rocket 4.0 08:20:16 10° S 08:26:32 82° E 08:32:45 10° N
NOSS 3-3 (A) 4.3 08:23:32 10° SW 08:28:39 55° NW 08:34:46 10° NNE
Tsikada Rocket 4.4 08:27:15 10° N 08:33:18 41° ENE 08:39:18 10° SE
Cosmos 1441 Rocket 3.8 08:31:20 10° NNE 08:34:11 26° ENE 08:37:03 10° SE
COSMO-SKYMED 1 3.6 08:31:21 10° NE 08:34:41 23° E 08:38:00 10° SSE
IRS-P3 4.1 08:30:31 10° SSE 08:35:48 69° ENE 08:41:07 10° N
CZ-4C R/B 1.6 08:33:40 10° SW 08:37:47 85° SE 08:43:01 10° NE
SKYMED 2 4.1 08:33:57 10° NNE 08:38:00 37° E 08:42:01 10° SSE
UNK 4.5 08:34:40 10° N 08:39:12 56° WNW 08:43:41 10° SSW
Cosmos 1908 Rocket 3.5 08:39:52 10° S 08:44:14 71° E 08:48:39 10° NNE
CZ-2D R/B 3.4 08:42:32 10° S 08:45:39 58° W 08:48:48 10° NNW
SPOT 1/Viking Rocket 3.7 08:41:12 10° SE 08:46:07 47° ENE 08:51:04 10° N
ARIANE 5 R/B 2.9 08:42:02 10° S 08:47:00 67° WSW 08:51:58 10° NNW
Cosmos 1300 Rocket 3.8 08:44:39 10° SSE 08:48:50 44° E 08:53:01 10° NNE
Cosmos 1975 Rocket 3.9 08:47:05 10° NNE 08:50:46 27° ENE 08:54:27 10° SE
USA 281 4.0 08:47:07 14° E 08:51:34 28° NE 08:57:00 10° N
SMAP 4.2 08:48:06 10° S 08:52:35 48° W 08:57:06 10° NNW
Cosmos 2221 Rocket 3.7 08:49:35 10° N 08:54:07 84° W 08:58:35 10° S
Cosmos 1140 Rocket 4.3 08:50:04 10° SSE 08:54:24 27° E 08:56:46 20° ENE
Cosmos 2016 Rocket 4.0 08:51:25 10° S 08:57:38 85° E 09:03:59 10° N
Geosat 4.0 08:53:07 10° SE 08:58:02 61° ENE 09:02:58 10° NNW
Cosmos 1340 Rocket 3.9 08:54:28 10° SSW 08:58:09 44° WNW 09:01:53 10° N
Cosmos 1844 Rocket 3.7 08:54:08 10° SW 08:59:27 46° WNW 09:04:50 10° NNE
IRAS Rocket 4.2 08:54:14 10° SSE 08:59:43 61° ENE 09:05:12 10° N
Helios 1A Rocket 2.5 09:00:55 17° NNE 09:03:23 53° E 09:06:42 10° S
Resurs 01 Rocket 3.2 09:05:18 18° NE 09:05:18 18° NE 09:07:10 10° NNE
SJ-7 4.1 09:03:24 10° SSE 09:07:01 55° ENE 09:10:39 10° N
ATLAS 5 CENTAUR R/B 3.0 09:03:51 10° N 09:07:08 21° NE 09:07:17 21° NE
Cosmos 1867 4.1 09:02:40 10° SW 09:08:01 59° NW 09:13:17 11° NNE
ATLAS CENTAUR R/B 0.7 09:06:16 10° SSW 09:09:43 75° ESE 09:11:00 36° NE
Cosmos 1833 Rocket 3.0 09:04:40 10° NNW 09:10:02 42° ENE 09:13:06 23° ESE
SL-19 R/B 4.0 09:06:02 10° SSE 09:11:17 63° ENE 09:16:26 10° N
PSLV R/B 3.3 09:13:10 10° SSE 09:17:12 67° ENE 09:21:15 10° N
Cosmos 2061 Rocket 3.9 09:12:28 10° S 09:18:50 81° E 09:25:09 10° N
Spot 4 Rocket 4.0 09:22:03 10° SSE 09:27:09 84° WSW 09:32:17 10° NNW
Resurs 1-3 3.4 09:27:44 10° SSE 09:32:02 89° ENE 09:36:22 10° NNW
Cosmos 1023 Rocket 4.3 09:31:59 10° S 09:37:09 71° ESE 09:39:25 33° NNE
Tiangong -1.0 09:35:15 10° W 09:37:53 39° SSW 09:37:53 39° SSW
SL-12 R/B(2) 4.4 09:33:39 10° S 09:40:59 49° ESE 09:44:47 32° ENE
Cosmos 921 Rocket 4.1 09:37:54 10° SW 09:41:59 43° WNW 09:46:04 11° N
YAOGAN 1 2.9 09:39:19 10° S 09:43:31 63° WSW 09:47:47 10° NNW
Cosmos 1891 Rocket 4.4 09:38:40 10° S 09:45:00 68° E 09:51:27 10° NNE
NOAA 6 4.0 09:41:51 10° SSE 09:47:01 87° WSW 09:52:12 10° NNW
Cosmos 1269 Rocket 3.9 09:44:13 10° SSW 09:49:28 86° WNW 09:52:10 30° NNE
Cosmos 2082 Rocket 3.8 09:51:01 10° N 09:53:24 19° NNE 09:53:24 19° NNE
SL-4 R/B 3.0 09:53:45 10° WNW 09:55:55 35° NW 09:55:55 35° NW
Cosmos 2278 Rocket 4.0 09:53:21 10° S 09:54:45 17° SSE 09:54:45 17° SSE
Cosmos 1464 Rocket 4.3 09:59:46 10° S 10:11:39 13° NNE 10:12:13 10° NNE
COSMO-SKYMED 1 4.2 10:06:23 10° N 10:10:03 31° WNW 10:13:41 10° SW
DNEPR-1 R/B 4.3 10:15:36 10° NW 10:19:23 56° W 10:19:23 56° W
CZ-4C R/B 4.0 10:23:20 10° WNW 10:26:56 21° NNW 10:28:27 19° N
Cosmos 1943 Rocket 4.0 10:28:20 10° SSW 10:29:55 20° SSW 10:29:55 20° SSW
USA 281 3.4 10:34:01 52° S 10:35:34 68° WSW 10:42:09 10° NNW
ATLAS 2AS CENTAUR R/B 4.4 10:34:46 10° NNW 10:38:26 19° N 10:38:26 19° N
Resurs 01 Rocket 3.9 10:42:43 19° NW 10:42:43 19° NW 10:44:09 10° NNW
ATLAS CENTAUR R/B 4.4 10:43:30 10° WNW 10:43:37 10° WNW 10:43:37 10° WNW
ATLAS 5 CENTAUR R/B 3.9 10:45:27 10° NW 10:46:51 21° NW 10:46:51 21° NW
Cosmos 1833 Rocket 4.2 10:48:52 10° NW 10:53:47 31° WSW 10:54:52 29° SW
